Find Starlink 34106

NORAD ID: 63907 Int'l Des: 2025-095 Owner: SPXS Country: US Constellation: starlink operational
LEOCIRCULAR

現在のビュー

3D地球を読み込み中...

About Starlink 34106

Starlink 34106 (NORAD 63907) is a starlink constellation satellite (v2 mini) launched May 10, 2025 by SPXS of US. It operates in LEO, CIRCULAR orbit with a mass of 575.00 kg.

次回通過

Passes for default location (London). Set your location on the main map for personalized predictions.

高度履歴

Loading altitude history...

軌道要素

1 63907U 25095T 26264.01355839 .00013295 00000-0 49159-3 0 9991
2 63907 43.0073 152.8123 0001171 260.5880 99.4839 15.27593495 77652
Epoch: Sep 21, 2026 • Age: 12 hours

現在のステータス

高度 495.5 km
遠地点 / 近地点 N/A
速度 7.62 km/s
衛星直下点 -43.16°S, 128.23°W
打ち上げ日 May 10, 2025
運用期間 1.3 years
タイプ internet

技術仕様

分類 Payload
質量 575.00 kg
乾燥質量 530.00 kg
長さ 0.30 m
スパン 29.00 m
形状 ? Box + pan
製造者 SPXS
バスタイプ Starlink V2MO
フェーズステータス In Orbit
所有者/国 SPXS/US

Most Searched